Regional Weather Roundup
Issued by NWS

Home | Current Version | Previous Version | Text Only | Print | Product List | Glossary Off
Versions: 1 2 3 4 5 6 7 8 9 10 11 12 13 14 15 16 17 18 19 20 21 22 23 24 25 26 27 28 29 30 31 32 33 34 35 36 37 38 39 40 41 42 43 44 45 46 47 48 49 50

000
ASUS45 KPSR 222100
RWRAZ

PRELIMINARY ARIZONA REGIONAL HOURLY WEATHER ROUNDUP
NATIONAL WEATHER SERVICE PHOENIX AZ
200 PM MST WED OCT 22 2014

NOTE: FAIR INDICATES FEW OR NO CLOUDS BELOW 12,000 FEET WITH NO
SIGNIFICANT WEATHER AND/OR OBSTRUCTIONS TO VISIBILITY.

AZZ001>003-036-222200-
NORTHWEST ARIZONA

CITY           SKY/WX    TMP DP  RH WIND       PRES   REMARKS
KINGMAN        SUNNY     81  36  19 W9        30.06F
$$

AZZ004>008-015-016-018-222200-
NORTH CENTRAL ARIZONA

CITY           SKY/WX    TMP DP  RH WIND       PRES   REMARKS
GRAND CANYON   SUNNY     67  28  23 W8G17     30.23S
PRESCOTT       MOSUNNY   74  39  28 CALM      30.14F
FLAGSTAFF      MOSUNNY   65  38  36 S14       30.23F
PAYSON         SUNNY     72  37  28 S9        30.17S
PAGE           SUNNY     75  38  26 VRB6      30.08F
$$

AZZ009>014-017-222200-
NORTHEAST ARIZONA

CITY           SKY/WX    TMP DP  RH WIND       PRES   REMARKS
WINSLOW        NOT AVBL
SAINT JOHNS    SUNNY     72  38  29 W7        30.15F
$$

AZZ023-222200-
GREATER PHOENIX AREA

CITY           SKY/WX    TMP DP  RH WIND       PRES   REMARKS
PHOENIX        MOSUNNY   89  50  26 N6        29.91F
GLENDALE       MOSUNNY   88  52  29 CALM      29.93F
LUKE AFB       SUNNY     87  52  29 MISG      29.91F
DEER VALLEY    SUNNY     87  48  25 S6        29.93F
SCOTTSDALE     SUNNY     89  49  25 VRB3      29.94F
MESA-GATEWAY   MOSUNNY   70  52  52 CALM      29.95F
CHANDLER       MOSUNNY   88  52  29 CALM      29.93F
$$

AZZ027-028-222200-
SOUTHWEST MARICOPA COUNTY AND PINAL COUNTY

CITY           SKY/WX    TMP DP  RH WIND       PRES   REMARKS
CASA GRANDE    SUNNY     86  48  26 CALM      29.94S
$$

AZZ503-504-507>509-222200-
SOUTHEAST ARIZONA

CITY           SKY/WX    TMP DP  RH WIND       PRES   REMARKS
TUCSON         SUNNY     86  42  21 VRB6      29.98F
DAVIS-MONTHAN  SUNNY     85  41  21 NW6       29.97F
RYAN FIELD       N/A     88  45  22 NE3       29.97F
SIERRA VISTA   MOSUNNY   79  41  25 VRB5      30.09F
SAFFORD        SUNNY     80  49  33 SW7       30.01F
$$

AZZ020-021-025-026-031-222200-
SOUTHWEST ARIZONA

CITY           SKY/WX    TMP DP  RH WIND       PRES   REMARKS
YUMA           MOSUNNY   95  45  17 CALM      29.85F
$$

CAZ031-033-041-043-047-048-061-222200-
SOUTHERN CALIFORNIA

CITY           SKY/WX    TMP DP  RH WIND       PRES   REMARKS
DOWNTOWN L.A.  SUNNY     81  57  43 VRB5      29.89F
L.A. AIRPORT   MOSUNNY   73  62  68 W13       29.91F
SAN DIEGO      MOSUNNY   74  62  66 NW9       29.91F
BURBANK        SUNNY     85  46  25 CALM      29.90F
ONTARIO        PTSUNNY   86  41  20 SW8       29.90F
RIVERSIDE      SUNNY     88  24  10 VRB5      29.89F
PALM SPRINGS   MOSUNNY   92  33  12 VRB7      29.89F
EL CENTRO NAS  MOSUNNY   92  47  21 CALM      29.85F
IMPERIAL       SUNNY     92  45  19 NE3       29.85F
BLYTHE         SUNNY     91  48  22 VRB3      29.88F
$$

NVZ020-UTZ003-222200-
SOUTHERN NEVADA-UTAH

CITY           SKY/WX    TMP DP  RH WIND       PRES   REMARKS
LAS VEGAS      NOT AVBL
SALT LAKE CITY MOSUNNY   62  33  33 NW8       30.16F
$$

NMZ009-TXZ055-222200-
NEW MEXICO-WEST TEXAS

CITY           SKY/WX    TMP DP  RH WIND       PRES   REMARKS
ALBUQUERQUE    PTSUNNY   72  41  32 CALM      30.14F
EL PASO        MOSUNNY   74  53  48 CALM      30.08F
$$


........................KEY........................
SKY/WX - SKY CONDITION/WEATHER
TMP    - TEMPERATURE IN FAHRENHEIT
DP     - DEW POINT IN FAHRENHEIT
RH     - RELATIVE HUMIDITY IN PERCENT
WIND   - DIRECTION AND SPEED IN MILES PER HOUR (MPH)
VRB    - VARIABLE WIND DIRECTION
PRES   - MEAN SEA LEVEL PRESSURE IN INCHES OF MERCURY
         F - FALLING PRESSURE   R - RISING PRESSURE
         S - STEADY PRESSURE
VSB    - VISIBILITY IN MILES
HX     - HEAT INDEX IN FAHRENHEIT
WCI    - WIND CHILL INDEX IN FAHRENHEIT
TC     - TEMPERATURE IN CELSIUS WHICH IS ALSO KNOWN AS
         TEMPERATURE IN CENTIGRADE
AFB    - AIR FORCE BASE
         LUKE AFB IS LUKE AIR FORCE BASE
         DAVIS-MONTHAN IS DAVIS-MONTHAN AIR FORCE BASE
NAS    - NAVAL AIR STATION
         EL CENTRO NAS IS EL CENTRO NAVAL AIR STATION
N/A    - NOT AVAILABLE



USA.gov is the U.S. government's official web portal to all federal, state and local government web resources and services.